Regional Weather Roundup
Issued by NWS

Home | Current Version | Previous Version | Text Only | Print | Product List | Glossary On
Versions: 1 2 3 4 5 6 7 8 9 10 11 12 13 14 15 16 17 18 19 20 21 22 23 24 25 26 27 28 29 30 31 32 33 34 35 36 37 38 39 40 41 42 43 44 45 46 47 48 49 50
000
ASUS43 KLSX 110357
RWRMO

WEATHER SUMMARY FOR MISSOURI
NATIONAL WEATHER SERVICE SPRINGFIELD MO
1000 PM CST SUN DEC 10 2017

NOTE: "FAIR" INDICATES FEW OR NO CLOUDS BELOW 12,000 FEET WITH NO
       SIGNIFICANT WEATHER AND/OR OBSTRUCTIONS TO VISIBILITY.
       CURRENT SKY AND/OR WEATHER CONDITIONS ARE NOT AVAILABLE FOR
       CHILLICOTHE AND FARMINGTON.

MOZ001>031-035>038-043-044-053-054-110500-
...NORTHERN AND WESTERN MISSOURI...

CITY           SKY/WX    TMP DP  RH WIND       PRES   REMARKS
KANSAS CTY INT CLEAR     40  23  50 S5        30.12F
LEE`S SUMMIT   CLEAR     45  24  43 SW5       30.14S
ST JOSEPH      CLEAR     31  26  82 S5        30.13S WCI  26
CHILLICOTHE      N/A     31  24  75 CALM      30.13S

$$
MOZ066>068-077>081-088>096-101>105-110500-
...SOUTHWEST MISSOURI...

CITY           SKY/WX    TMP DP  RH WIND       PRES   REMARKS
SPRINGFIELD    CLEAR     39  23  52 SW3       30.17S
JOPLIN         CLEAR     43  24  47 SW6       30.19F

$$
MOZ032>034-039>042-045>050-055>058-069>072-110500-
...CENTRAL MISSOURI...

CITY           SKY/WX    TMP DP  RH WIND       PRES   REMARKS
COLUMBIA       NOT AVBL
JEFFERSON CITY CLEAR     33  25  72 CALM      30.16S
ROLLA          CLEAR     37  25  61 W7        30.15S
SEDALIA        CLEAR     43  27  53 SW10      30.16S
WARRENSBURG    CLEAR     34  25  69 S5        30.16S WCI  30

$$
MOZ051-052-059>065-110500-
...EAST CENTRAL MISSOURI...

CITY           SKY/WX    TMP DP  RH WIND       PRES   REMARKS
ST LOUIS INTL  CLEAR     35  25  66 W3        30.14S

$$
MOZ072>076-082>087-097>100-106>115-110500-
...SOUTH CENTRAL AND SOUTHEAST MISSOURI...

CITY           SKY/WX    TMP DP  RH WIND       PRES   REMARKS
CAPE GIRARDEAU CLEAR     30  27  88 CALM      30.15S
POPLAR BLUFF   CLEAR     34  29  82 CALM      30.16R
WEST PLAINS    CLEAR     39  23  52 W6        30.18R

$$


USA.gov is the U.S. government's official web portal to all federal, state and local government web resources and services.